Regional Weather Roundup
Issued by NWS

Home | Current Version | Previous Version | Text Only | Print | Product List | Glossary Off
Versions: 1 2 3 4 5 6 7 8 9 10 11 12 13 14 15 16 17 18 19 20 21 22 23 24 25 26 27 28 29 30 31 32 33 34 35 36 37 38 39 40 41 42 43 44 45 46 47 48 49 50

000
ASUS43 KLSX 211257
RWRMO

WEATHER SUMMARY FOR MISSOURI
NATIONAL WEATHER SERVICE SPRINGFIELD MO
800 AM CDT THU SEP 21 2017

NOTE: "FAIR" INDICATES FEW OR NO CLOUDS BELOW 12,000 FEET WITH NO
       SIGNIFICANT WEATHER AND/OR OBSTRUCTIONS TO VISIBILITY.
       CURRENT SKY AND/OR WEATHER CONDITIONS ARE NOT AVAILABLE FOR
       CHILLICOTHE AND FARMINGTON.

MOZ001>031-035>038-043-044-053-054-211400-
...NORTHERN AND WESTERN MISSOURI...

CITY           SKY/WX    TMP DP  RH WIND       PRES   REMARKS
KANSAS CTY INT MOCLDY    76  71  85 S8        29.91R
LEE`S SUMMIT   CLEAR     74  72  93 S9        29.94R
ST JOSEPH      CLEAR     75  73  93 S6        29.89R
CHILLICOTHE      N/A     75  73  93 CALM      29.94R

$$
MOZ066>068-077>081-088>096-101>105-211400-
...SOUTHWEST MISSOURI...

CITY           SKY/WX    TMP DP  RH WIND       PRES   REMARKS
SPRINGFIELD    SUNNY     73  72  96 SE14      30.00R

$$
MOZ032>034-039>042-045>050-055>058-069>072-211400-
...CENTRAL MISSOURI...

CITY           SKY/WX    TMP DP  RH WIND       PRES   REMARKS
COLUMBIA       NOT AVBL
JEFFERSON CITY SUNNY     74  70  87 E5        29.98R
ROLLA          SUNNY     74  71  91 S8        30.03R
SEDALIA        CLOUDY    76  73  91 S8        29.98R
WARRENSBURG    SUNNY     72  68  88 SE7       29.94R

$$
MOZ051-052-059>065-211400-
...EAST CENTRAL MISSOURI...

CITY           SKY/WX    TMP DP  RH WIND       PRES   REMARKS
ST LOUIS INTL  CLOUDY    77  71  82 S5        30.02R

$$
MOZ072>076-082>087-097>100-106>115-211400-
...SOUTH CENTRAL AND SOUTHEAST MISSOURI...

CITY           SKY/WX    TMP DP  RH WIND       PRES   REMARKS
CAPE GIRARDEAU SUNNY     73  71  93 SE3       30.05R FOG
POPLAR BLUFF   SUNNY     71  69  93 CALM      30.04R FOG
WEST PLAINS    SUNNY     71  69  93 SE3       30.07R FOG

$$



USA.gov is the U.S. government's official web portal to all federal, state and local government web resources and services.